Moose Lake, MN

3:39 AM CDT on May 27, 2017 (GMT -0500)
Moose Lake-Carlton County

Weather History for KMZH - May, 2009

Change the Weather History Date:

Thursday, May 21, 2009

  Actual Average Record
Temperature  
Mean Temperature 60 °F -  
Max Temperature 68 °F 70 °F 90 °F (1964)
Min Temperature 51 °F 39 °F 26 °F (1971)
Degree Days  
Heating Degree Days 6    
Growing Degree Days 10 (Base 50)    
Moisture  
Dew Point 40 °F    
Average Humidity 51    
Maximum Humidity 77    
Minimum Humidity 24    
Precipitation  
Precipitation 0.00 in - - ()
Sea Level Pressure  
Sea Level Pressure 30.06 in    
Wind  
Wind Speed 9 mph (NNW)    
Max Wind Speed 15 mph    
Max Gust Speed 22 mph    
Visibility 10 miles    
Events Rain    
Averages and records for this station are not official NWS values.
T = Trace of Precipitation, MM = Missing Value Source: NWS Daily Summary

Daily Weather History Graph

Daily Weather History Graph

Search for Another Location

Airport or City:

Trip Planner

Search our weather history database for the weather conditions in past years. The results will help you decide how hot, cold, wet, or windy it might be!

Date:

Astronomy

May. 21, 2009 Rise Set
Actual Time 5:30 AM CDT 8:45 PM CDT
Civil Twilight 4:54 AM CDT 9:21 PM CDT
Nautical Twilight 4:07 AM CDT 10:09 PM CDT
Astronomical Twilight 3:08 AM CDT 11:09 PM CDT
Moon 3:24 AM CDT (5/21) 5:47 PM CDT (5/21)
Length of Visible Light 16h 27m
Length of Day
15h 14m
Waning Crescent, 10% of the Moon is Illuminated
May 21
Waning Crescent
May 24
New
May 30
First Quarter
Jun 7
Full
Jun 15
Last Quarter

Hourly Weather History & Observations

Time (CDT) Temp. Windchill Dew Point Humidity Pressure Visibility Wind Dir Wind Speed Gust Speed Precip Events Conditions
12:16 AM 66.2 °F - 53.6 °F 64% 29.75 in 10.0 mi NNW 11.5 mph 16.1 mph N/A   Mostly Cloudy
12:36 AM 64.4 °F - 51.8 °F 64% 29.76 in 10.0 mi NNW 11.5 mph - N/A   Mostly Cloudy
12:57 AM 62.6 °F - 50.0 °F 63% 29.79 in 10.0 mi NNW 13.8 mph 21.9 mph N/A   Mostly Cloudy
1:16 AM 60.8 °F - 50.0 °F 68% 29.81 in 10.0 mi NNW 13.8 mph 19.6 mph N/A   Scattered Clouds
1:36 AM 59.0 °F - 50.0 °F 72% 29.82 in 10.0 mi NNW 15.0 mph 21.9 mph N/A   Scattered Clouds
2:36 AM 57.2 °F - 46.4 °F 67% 29.88 in 10.0 mi NW 5.8 mph - N/A   Overcast
2:56 AM 55.4 °F - 46.4 °F 72% 29.90 in 10.0 mi NNW 10.4 mph 17.3 mph N/A   Overcast
3:16 AM 55.4 °F - 46.4 °F 72% 29.90 in 10.0 mi North 12.7 mph 16.1 mph N/A   Overcast
3:36 AM 55.4 °F - 44.6 °F 67% 29.92 in 10.0 mi NNW 6.9 mph 20.7 mph N/A   Overcast
3:56 AM 55.4 °F - 44.6 °F 67% 29.95 in 10.0 mi NNW 6.9 mph - N/A   Overcast
4:16 AM 55.4 °F - 44.6 °F 67% 29.97 in 10.0 mi NW 8.1 mph - N/A   Overcast
4:36 AM 53.6 °F - 44.6 °F 72% 29.97 in 10.0 mi NW 4.6 mph - N/A   Overcast
5:16 AM 53.6 °F - 44.6 °F 72% 29.95 in 10.0 mi NNW 9.2 mph - N/A Rain Light Rain
5:36 AM 53.6 °F - 44.6 °F 72% 29.94 in 10.0 mi North 8.1 mph - N/A   Overcast
5:56 AM 53.6 °F - 44.6 °F 72% 29.95 in 10.0 mi NNW 8.1 mph - N/A   Overcast
6:16 AM 53.6 °F - 44.6 °F 72% 29.97 in 10.0 mi North 6.9 mph - N/A   Overcast
6:36 AM 51.8 °F - 44.6 °F 76% 29.99 in 10.0 mi NNW 4.6 mph - N/A   Overcast
7:16 AM 51.8 °F - 44.6 °F 76% 30.02 in 10.0 mi NNW 5.8 mph - N/A   Overcast
7:36 AM 51.8 °F - 44.6 °F 76% 30.03 in 10.0 mi NNW 5.8 mph - N/A   Overcast
7:56 AM 51.8 °F - 44.6 °F 76% 30.04 in 10.0 mi NW 4.6 mph - N/A   Overcast
8:16 AM 51.8 °F - 44.6 °F 76% 30.05 in 10.0 mi NNW 5.8 mph - N/A   Overcast
8:36 AM 53.6 °F - 44.6 °F 72% 30.06 in 10.0 mi North 5.8 mph - N/A   Overcast
8:56 AM 53.6 °F - 46.4 °F 77% 30.07 in 10.0 mi North 4.6 mph - N/A   Mostly Cloudy
9:17 AM 55.4 °F - 46.4 °F 72% 30.08 in 10.0 mi NNW 8.1 mph - N/A   Mostly Cloudy
9:36 AM 55.4 °F - 46.4 °F 72% 30.08 in 10.0 mi North 9.2 mph - N/A   Mostly Cloudy
9:56 AM 59.0 °F - 44.6 °F 59% 30.08 in 10.0 mi NNW 6.9 mph - N/A   Scattered Clouds
10:16 AM 59.0 °F - 44.6 °F 59% 30.10 in 10.0 mi NW 9.2 mph - N/A   Mostly Cloudy
10:36 AM 59.0 °F - 44.6 °F 59% 30.11 in 10.0 mi NW 9.2 mph - N/A   Overcast
10:56 AM 59.0 °F - 42.8 °F 55% 30.12 in 10.0 mi North 5.8 mph - N/A   Scattered Clouds
11:16 AM 60.8 °F - 42.8 °F 52% 30.14 in 10.0 mi NW 9.2 mph - N/A   Scattered Clouds
11:36 AM 62.6 °F - 42.8 °F 48% 30.14 in 10.0 mi WNW 10.4 mph 18.4 mph N/A   Scattered Clouds
11:56 AM 60.8 °F - 42.8 °F 52% 30.14 in 10.0 mi NW 8.1 mph - N/A   Scattered Clouds
12:16 PM 60.8 °F - 41.0 °F 48% 30.14 in 10.0 mi NNW 13.8 mph 20.7 mph N/A   Scattered Clouds
12:36 PM 60.8 °F - 41.0 °F 48% 30.14 in 10.0 mi NNW 8.1 mph - N/A   Scattered Clouds
12:56 PM 62.6 °F - 42.8 °F 48% 30.14 in 10.0 mi NW 9.2 mph - N/A   Scattered Clouds
1:16 PM 64.4 °F - 41.0 °F 42% 30.15 in 10.0 mi NW 10.4 mph 18.4 mph N/A   Scattered Clouds
1:36 PM 62.6 °F - 39.2 °F 42% 30.14 in 10.0 mi WNW 5.8 mph 16.1 mph N/A   Clear
1:57 PM 64.4 °F - 37.4 °F 37% 30.14 in 10.0 mi NW 9.2 mph - N/A   Clear
2:16 PM 66.2 °F - 37.4 °F 35% 30.14 in 10.0 mi NW 10.4 mph 18.4 mph N/A   Scattered Clouds
2:36 PM 66.2 °F - 37.4 °F 35% 30.14 in 10.0 mi WNW 5.8 mph - N/A   Scattered Clouds
2:56 PM 66.2 °F - 33.8 °F 30% 30.15 in 10.0 mi WNW 9.2 mph - N/A   Clear
3:16 PM 66.2 °F - 32.0 °F 28% 30.15 in 10.0 mi NNW 9.2 mph - N/A   Clear
3:36 PM 66.2 °F - 30.2 °F 26% 30.14 in 10.0 mi West 10.4 mph 16.1 mph N/A   Clear
3:56 PM 66.2 °F - 30.2 °F 26% 30.14 in 10.0 mi NW 9.2 mph 17.3 mph N/A   Clear
4:17 PM 66.2 °F - 28.4 °F 24% 30.14 in 10.0 mi NNW 11.5 mph 20.7 mph N/A   Clear
4:36 PM 68.0 °F - 30.2 °F 24% 30.15 in 10.0 mi NW 15.0 mph 21.9 mph N/A   Clear
4:56 PM 66.2 °F - 28.4 °F 24% 30.14 in 10.0 mi NNW 11.5 mph 18.4 mph N/A   Clear
5:36 PM 66.2 °F - 28.4 °F 24% 30.15 in 10.0 mi WNW 5.8 mph - N/A   Clear
5:56 PM 66.2 °F - 30.2 °F 26% 30.15 in 10.0 mi NW 8.1 mph 17.3 mph N/A   Clear
6:36 PM 64.4 °F - 28.4 °F 26% 30.16 in 10.0 mi NNW 11.5 mph 18.4 mph N/A   Clear
6:56 PM 62.6 °F - 26.6 °F 26% 30.16 in 10.0 mi NNW 11.5 mph - N/A   Clear
7:16 PM 62.6 °F - 26.6 °F 26% 30.17 in 10.0 mi NNW 10.4 mph 20.7 mph N/A   Clear
7:36 PM 62.6 °F - 26.6 °F 26% 30.18 in 10.0 mi NNW 10.4 mph - N/A   Clear
7:56 PM 60.8 °F - 26.6 °F 27% 30.18 in 10.0 mi NNW 4.6 mph - N/A   Clear
8:16 PM 60.8 °F - 30.2 °F 31% 30.19 in 10.0 mi NNW 4.6 mph - N/A   Clear
8:36 PM 59.0 °F - 30.2 °F 34% 30.19 in 10.0 mi NNW 5.8 mph - N/A   Scattered Clouds
8:56 PM 55.4 °F - 30.2 °F 38% 30.20 in 10.0 mi North 6.9 mph - N/A   Scattered Clouds
9:16 PM 55.4 °F - 28.4 °F 36% 30.21 in 10.0 mi North 6.9 mph - N/A   Scattered Clouds
9:36 PM 53.6 °F - 28.4 °F 38% 30.21 in 10.0 mi NNW 4.6 mph - N/A   Clear
9:56 PM 53.6 °F - 30.2 °F 41% 30.22 in 10.0 mi North 4.6 mph - N/A   Clear
10:16 PM 51.8 °F - 30.2 °F 44% 30.23 in 10.0 mi NNW 4.6 mph - N/A   Scattered Clouds
10:36 PM 48.2 °F - 32.0 °F 54% 30.24 in 10.0 mi North 4.6 mph - N/A   Scattered Clouds
10:56 PM 46.4 °F 44.3 °F 33.8 °F 62% 30.24 in 10.0 mi North 4.6 mph - N/A   Scattered Clouds
11:16 PM 44.6 °F 42.2 °F 33.8 °F 66% 30.24 in 10.0 mi North 4.6 mph - N/A   Clear
11:36 PM 46.4 °F 45.2 °F 32.0 °F 57% 30.24 in 10.0 mi NNE 3.5 mph - N/A   Scattered Clouds
11:56 PM 44.6 °F 43.1 °F 32.0 °F 61% 30.24 in 10.0 mi North 3.5 mph - N/A   Scattered Clouds